Location: Azalea Creek
(37.1280°N, 119.2623°W)
Time: 18:46:55
(UTC+00:00)

Cosmos 2082 Rocket - Pass Details

Date: 17 February 2020
Orbit: 833 x 854 km, 71.0° (Epoch: 05 April)

Event Time Altitude Azimuth Distance (km) Brightness Sun altitude
Rises 02:51:41 0° 334° (NNW) 3,394 5.6 -15.4°
Reaches altitude 10° 02:54:08 10° 331° (NNW) 2,459 4.9 -15.8°
Maximum altitude 02:59:42 64° 252° (WSW) 931 2.7 -16.9°
Drops below altitude 10° 03:05:16 10° 172° (S) 2,458 4.5 -18.1°
Sets 03:07:44 0° 169° (S) 3,392 5.2 -18.5°
